Location: Beetenbrück
(52.8113°N, 9.5946°E)
Time: 16:30:47
(UTC+00:00)

SL-08 R/B - Pass Details

Date: 14 April 2026
Orbit: 667 x 728 km, 98.5° (Epoch: 9 May)

Event Time Altitude Azimuth Distance (km) Brightness Sun altitude
Rises 19:28:01 0° 19° (NNE) 3,146 6.8 -10.3°
Reaches altitude 10° 19:30:23 10° 25° (NNE) 2,227 6.0 -10.6°
Maximum altitude 19:35:06 46° 99° (E) 979 3.7 -11.2°
Drops below altitude 10° 19:39:47 10° 173° (S) 2,222 5.5 -11.8°
Sets 19:42:09 0° 179° (S) 3,138 6.3 -12.1°
Enters shadow 19:42:16 - 179° (S) 3,185 6.4 -12.1°
